Location: *
(46.4000°N, 12.6667°E)
Time: 16:32:26
(UTC+00:00)

Envisat - Visible Passes

Search period start: 07 October 2022 00:00
Search period end: 17 October 2022 00:00
Orbit: 764 x 765 km, 98.2° (Epoch: 06 October)

Date Brightness Start Highest point End Pass type
(mag) Time Alt. Az. Time Alt. Az. Time Alt. Az.
07 Oct 3.9 03:10:36 10° NNE 03:15:33 50° E 03:20:28 10° S visible
08 Oct 5.2 02:34:15 10° NE 02:38:20 24° E 02:42:24 10° SE visible
08 Oct 3.2 04:12:42 10° N 04:17:34 48° WNW 04:22:25 10° SW visible
09 Oct 6.0 01:59:32 10° ENE 02:00:54 11° E 02:02:17 10° ESE visible
09 Oct 3.0 03:35:35 10° NNE 03:40:42 83° ESE 03:45:47 10° SSW visible
10 Oct 4.3 02:58:51 10° NNE 03:03:37 39° E 03:08:21 10° SSE visible
10 Oct 3.8 04:38:07 10° N 04:42:29 30° WNW 04:46:50 10° SW visible
11 Oct 5.5 02:22:45 10° NE 02:26:20 19° E 02:29:54 10° SE visible
11 Oct 3.0 04:00:44 10° N 04:05:45 60° WNW 04:10:44 10° SSW visible
12 Oct 3.3 03:23:44 10° NNE 03:28:48 66° ESE 03:33:51 10° S visible
13 Oct 4.7 02:47:09 10° NNE 02:51:40 31° E 02:56:09 10° SSE visible
13 Oct 3.5 04:26:04 10° N 04:30:42 37° WNW 04:35:19 10° SW visible
14 Oct 5.7 02:11:26 10° NE 02:14:19 15° E 02:17:11 10° ESE visible
14 Oct 2.9 03:48:48 10° N 03:53:54 75° WNW 03:58:57 10° SSW visible
15 Oct 3.7 03:11:55 10° NNE 03:16:54 52° E 03:21:50 10° S visible
15 Oct 4.1 04:51:36 10° N 04:55:34 23° WNW 04:59:30 10° WSW visible
16 Oct 5.1 02:35:31 10° NE 02:39:41 25° E 02:43:50 10° SSE visible
16 Oct 3.3 04:14:03 10° N 04:18:53 45° WNW 04:23:42 10° SW visible
